Location: Devore Heights
(34.2372°N, 117.4156°W)
Time: 18:39:06
(UTC+00:00)

Vanguard 1 Rocket - Pass Details

Date: 18 September 2024
Orbit: 650 x 4218 km, 34.3° (Epoch: 04 October)

Event Time Altitude Azimuth Distance (km) Brightness Sun altitude
Rises 11:15:25 0° 252° (WSW) 5,008 - -28.9°
Reaches altitude 10° 11:18:02 10° 251° (WSW) 4,351 - -28.4°
Exits shadow 11:23:53 40° 248° (WSW) 3,230 9.6 -27.3°
Maximum altitude 11:31:13 84° 165° (SSE) 3,017 9.8 -25.8°
Drops below altitude 10° 11:55:38 10° 82° (E) 7,347 13.1 -21.1°
Sets 12:01:44 0° 82° (E) 8,464 13.9 -19.9°
